{"data":{"norad_id":60416,"intl_designator":"2024-141U","name":"STARLINK-32197","alt_names":[],"object_type":"PAYLOAD","status":"ACTIVE","operator":null,"country":"US","launch_date":"2024-08-10","launch_site_code":"AFETR","launch_vehicle":null,"mission":null,"orbit_class":"UNKNOWN","rcs_meters":null,"size_class":null,"mass_kg":null,"dimensions":null,"purposes":["comms"],"wikipedia_slug":null,"has_3d_model":false,"image_url":null,"decayed_at":null,"tle_current":{"epoch":"2026-09-21T09:28:28.594560Z","epoch_age_seconds":108270,"freshness":"FRESH","line1":"1 60416U 24141U   26264.39477540 -.00000205  00000+0  51509-5 0  9990","line2":"2 60416  53.1604  42.1932 0000935  87.1353 272.9755 15.31699535119648","mean_motion":15.31699535,"eccentricity":9.35e-5,"inclination_deg":53.1604,"raan_deg":42.1932,"arg_perigee_deg":87.1353,"mean_anomaly_deg":272.9755,"bstar":5.1509e-6,"rev_number":11964,"period_min":94.013216502021,"perigee_km":470.10101123815,"apogee_km":471.38175149546,"semimajor_km":6848.8783813668,"source":"CELESTRAK","updated_at":"2026-09-22T09:00:49.232511Z"}}}